Regional Weather Roundup
Issued by NWS

Home | Current Version | Previous Version | Graphics & Text | Print | Product List | Glossary On
Versions: 1 2 3 4 5 6 7 8 9 10 11 12 13 14 15 16 17 18 19 20 21 22 23 24 25 26 27
000
ASUS45 KBOI 260710
RWRID

IDAHO REGIONAL WEATHER ROUNDUP
NATIONAL WEATHER SERVICE BOISE ID
100 AM MDT MON JUN 26 2017

NOTE: "FAIR" INDICATES FEW OR NO CLOUDS BELOW 12000 FEET
WITH NO SIGNIFICANT WEATHER AND/OR OBSTRUCTIONS TO VISIBILITY

IDZ012-014-260800-
SOUTHWEST IDAHO


CITY           SKY/WX    TMP DP  RH WIND       PRES   REMARKS
BOISE          CLEAR     75  46  35 SE9       29.96S
CALDWELL       CLEAR     68  56  65 CALM      29.94S
MOUNTAIN HOME  CLEAR     66  39  36 E5        29.98S
$$

IDZ016-017-260800-
SOUTHCENTRAL IDAHO


CITY           SKY/WX    TMP DP  RH WIND       PRES   REMARKS
BURLEY         CLEAR     61  49  64 SW5       30.08S
JEROME         CLEAR     74  43  32 E12       30.07S
TWIN FALLS     CLEAR     70  43  37 S9        30.07S
$$

IDZ019>023-260800-
SOUTHEAST IDAHO


CITY           SKY/WX    TMP DP  RH WIND       PRES   REMARKS
IDAHO FALLS    CLEAR     55  50  83 N3        30.18S
POCATELLO      CLEAR     61  45  55 E8        30.14S
REXBURG        CLEAR     57  48  72 NE5       30.20R
$$

IDZ006-010-011-018-031-032-260800-
CENTRAL IDAHO MOUNTAINS


CITY           SKY/WX    TMP DP  RH WIND       PRES   REMARKS
MCCALL         CLEAR     59  46  62 CALM      30.14R
HAILEY         CLEAR     59  43  55 NW7       30.23S
STANLEY          N/A     53  41  63 SE8       30.29R
SALMON         CLEAR     57  45  62 S3        30.09S
CHALLIS        CLEAR     60  41  49 CALM      30.17R
$$

IDZ002-004-006-007-026-260800-
NORTHERN IDAHO


CITY           SKY/WX    TMP DP  RH WIND       PRES   REMARKS
LEWISTON       PTCLDY    73  49  42 S5        29.85F
LOWELL           N/A     63  56  78 N5        29.95R
COEUR D`ALENE  PTCLDY    67  57  70 SE6       29.92F
MULLAN PASS    PTCLDY    66  37  34 SE9       30.19F
$$




USA.gov is the U.S. government's official web portal to all federal, state and local government web resources and services.